Location: Taupo
(38.6830°S, 176.0830°E)
Time: 10:20:03
(UTC+13:00)

USA 238 - Pass Details

Date: 24 January 2019
Orbit: 1028 x 1184 km, 63.4° (Epoch: 19 October)

Event Time Altitude Azimuth Distance (km) Brightness Sun altitude
Rises 22:15:31 0° 350° (N) 4,060 6.4 -16.7°
Reaches altitude 10° 22:18:23 10° 355° (N) 3,100 5.8 -17.1°
Maximum altitude 22:25:24 46° 65° (ENE) 1,536 4.1 -18.1°
Drops below altitude 10° 22:32:19 10° 135° (SE) 3,065 6.1 -19.0°
Sets 22:35:07 0° 141° (SE) 4,011 6.8 -19.4°
